FW9285 Weather Reports


time (UTC)temp
F
wind
direction
speed
knots
gust
knots
rain 1hr
in
rain 24hr
in
rain mn
in
humidity
%
barometer
mb
20260507192428 90 285 0.9 3.5 0.00 0.00 0.00 17 1011.2
20260507191429 89 237 0.0 7.8 0.00 0.00 0.00 18 1011.2
20260507185428 90 236 0.9 5.2 0.00 0.00 0.00 18 1011.8
20260507184428 90 298 0.9 5.2 0.00 0.00 0.00 18 1012.0
20260507183428 87 334 2.6 7.8 0.00 0.00 0.00 19 1011.9
20260507180427 87 329 2.6 4.3 0.00 0.00 0.00 21 1012.5
20260507175429 85 245 2.6 5.2 0.00 0.00 0.00 22 1012.4
20260507174428 85 312 2.6 4.3 0.00 0.00 0.00 24 1012.4
20260507173428 84 309 1.7 5.2 0.00 0.00 0.00 24 1012.6
20260507172429 83 348 1.7 5.2 0.00 0.00 0.00 25 1012.9
20260507170429 82 284 1.7 4.3 0.00 0.00 0.00 26 1012.9
20260507165428 81 316 1.7 7.0 0.00 0.00 0.00 27 1012.8
20260507164428 81 278 0.0 7.0 0.00 0.00 0.00 27 1012.8
20260507163427 80 246 5.2 5.2 0.00 0.00 0.00 27 1013.0
20260507162429 80 160 1.7 5.2 0.00 0.00 0.00 27 1013.1
20260507155427 78 251 0.0 4.3 0.00 0.00 0.00 28 1013.3
20260507154431 76 188 0.9 3.5 0.00 0.00 0.00 29 1013.3
20260507153427 75 254 2.6 4.3 0.00 0.00 0.00 30 1013.6
20260507152428 75 246 0.9 3.5 0.00 0.00 0.00 29 1013.4
20260507151428 74 247 1.7 2.6 0.00 0.00 0.00 29 1013.9
20260507150430 73 261 1.7 3.5 0.00 0.00 0.00 30 1013.5
20260507145427 70 180 1.7 3.5 0.00 0.00 0.00 30 1013.8
20260507144429 69 244 1.7 2.6 0.00 0.00 0.00 32 1013.6
20260507142428 66 254 1.7 2.6 0.00 0.00 0.00 35 1013.6
20260507141429 65 235 1.7 3.5 0.00 0.00 0.00 36 1013.6
20260507140428 64 181 1.7 3.5 0.00 0.00 0.00 36 1013.5
20260507135427 64 190 0.9 2.6 0.00 0.00 0.00 37 1013.5
20260507134430 63 227 1.7 3.5 0.00 0.00 0.00 38 1013.4
20260507133427 63 193 0.9 2.6 0.00 0.00 0.00 38 1013.4
20260507132428 61 176 1.7 4.3 0.00 0.00 0.00 39 1013.2
20260507131430 60 216 1.7 2.6 0.00 0.00 0.00 40 1013.2
20260507125425 59 208 1.7 2.6 0.00 0.00 0.00 40 1012.8
20260507124426 58 234 0.9 1.7 0.00 0.00 0.00 40 1013.1
20260507123430 58 256 1.7 1.7 0.00 0.00 0.00 39 1013.3
20260507122426 58 286 0.9 1.7 0.00 0.00 0.00 40 1012.9
20260507121427 59 159 1.7 2.6 0.00 0.00 0.00 39 1012.9
20260507114424 58 179 0.0 1.7 0.00 0.00 0.00 39 1013.0
20260507113427 58 247 0.9 2.6 0.00 0.00 0.00 39 1013.1
20260507112426 58 275 1.7 2.6 0.00 0.00 0.00 40 1012.9
20260507111424 58 217 0.0 1.7 0.00 0.00 0.00 40 1012.9
20260507110424 59 248 0.9 1.7 0.00 0.00 0.00 39 1013.0
20260507105424 59 218 0.0 2.6 0.00 0.00 0.00 39 1013.1
20260507103423 60 261 1.7 1.7 0.00 0.00 0.00 38 1012.7
20260507102423 60 262 0.9 1.7 0.00 0.00 0.00 37 1013.1
20260507101424 60 215 1.7 1.7 0.00 0.00 0.00 38 1013.2
20260507100422 61 278 1.7 1.7 0.00 0.00 0.00 40 1013.1
20260507095422 61 247 1.7 1.7 0.00 0.00 0.00 39 1013.2
20260507094422 61 253 1.7 2.6 0.00 0.00 0.00 39 1013.2
20260507093423 62 279 0.9 1.7 0.00 0.00 0.00 39 1013.3
20260507092423 62 302 1.7 1.7 0.00 0.00 0.00 39 1013.3
20260507091423 61 299 1.7 2.6 0.00 0.00 0.00 39 1013.3
20260507085420 62 271 1.7 1.7 0.00 0.00 0.00 38 1013.4
20260507084421 62 289 1.7 1.7 0.00 0.00 0.00 40 1013.5
20260507083422 63 288 1.7 1.7 0.00 0.00 0.00 40 1013.6
20260507082421 63 273 0.9 1.7 0.00 0.00 0.00 36 1013.6
20260507081422 64 269 0.0 1.7 0.00 0.00 0.00 34 1013.5
20260507080420 64 231 0.9 1.7 0.00 0.00 0.00 34 1013.8
20260507075419 64 241 0.0 1.7 0.00 0.00 0.00 37 1013.9
20260507074420 65 232 0.9 1.7 0.00 0.00 0.00 36 1014.1
20260507073420 64 280 0.9 2.6 0.00 0.00 0.00 36 1013.8
20260507072421 64 266 0.9 1.7 0.00 0.00 0.00 36 1013.8
20260507071419 65 267 1.7 1.7 0.00 0.00 0.00 35 1014.0
20260507070419 65 256 0.9 1.7 0.00 0.00 0.00 35 1013.6
20260507065420 66 267 1.7 2.6 0.00 0.00 0.00 34 1013.8
20260507064420 67 286 1.7 1.7 0.00 0.00 0.00 33 1013.9
20260507063420 67 316 0.0 1.7 0.00 0.00 0.00 34 1013.6
20260507062420 67 282 0.9 1.7 0.00 0.00 0.00 34 1013.8
20260507061417 68 269 1.7 1.7 0.00 0.00 0.00 32 1013.6
20260507060420 68 244 0.9 1.7 0.00 0.00 0.00 32 1013.6
20260507055422 69 283 0.9 1.7 0.00 0.00 0.00 32 1013.9
20260507054420 69 304 0.9 1.7 0.00 0.00 0.00 31 1013.8
20260507053420 70 321 0.0 1.7 0.00 0.00 0.00 30 1013.6
20260507052420 71 306 0.9 1.7 0.00 0.00 0.00 30 1013.6
20260507051422 71 295 1.7 1.7 0.00 0.00 0.00 30 1013.8
20260507050422 71 296 1.7 1.7 0.00 0.00 0.00 32 1013.5
20260507045420 71 284 1.7 1.7 0.00 0.00 0.00 32 1013.4
20260507044419 71 298 0.9 1.7 0.00 0.00 0.00 33 1013.4
20260507043421 71 282 1.7 1.7 0.00 0.00 0.00 34 1013.4
20260507042418 73 294 1.7 1.7 0.00 0.00 0.00 32 1013.4
20260507041419 73 287 1.7 1.7 0.00 0.00 0.00 31 1013.2
20260507040419 74 285 1.7 1.7 0.00 0.00 0.00 29 1013.1
20260507035417 74 260 1.7 1.7 0.00 0.00 0.00 28 1013.1
20260507034414 74 260 1.7 1.7 0.00 0.00 0.00 31 1013.1
20260507033413 74 271 0.9 1.7 0.00 0.00 0.00 29 1012.9
20260507032415 75 275 0.9 1.7 0.00 0.00 0.00 27 1012.9
20260507031415 75 269 1.7 1.7 0.00 0.00 0.00 27 1012.7
20260507030414 76 272 0.9 2.6 0.00 0.00 0.00 27 1012.4
20260507025414 77 267 1.7 2.6 0.00 0.00 0.00 26 1012.3
20260507024414 77 276 1.7 2.6 0.00 0.00 0.00 25 1012.4
20260507021413 79 268 1.7 4.3 0.00 0.00 0.00 24 1011.8
20260507020410 79 264 0.9 5.2 0.00 0.00 0.00 24 1011.9
20260507015411 79 301 1.7 2.6 0.00 0.00 0.00 24 1011.9
20260507014409 80 286 0.0 2.6 0.00 0.00 0.00 23 1012.1
20260507013409 81 266 0.9 1.7 0.00 0.00 0.00 23 1012.0
20260507012408 82 309 0.0 1.7 0.00 0.00 0.00 22 1011.9
20260507011409 83 291 1.7 2.6 0.00 0.00 0.00 21 1012.0
20260507010408 83 317 0.9 4.3 0.00 0.00 0.00 21 1012.2
20260507004408 84 296 1.7 3.5 0.00 0.00 0.00 20 1012.0
20260507003409 84 264 0.0 5.2 0.00 0.00 0.00 20 1011.8
20260507002409 83 308 3.5 4.3 0.00 0.00 0.00 21 1011.9
20260507001408 85 307 1.7 6.1 0.00 0.00 0.00 20 1011.7
20260507000408 85 314 1.7 5.2 0.00 0.00 0.00 20 1011.9
20260506235407 85 246 5.2 6.1 0.00 0.00 0.00 20 1011.8
20260506234414 84 329 4.3 6.1 0.00 0.00 0.00 21 1011.9
20260506233407 84 281 1.7 6.1 0.00 0.00 0.00 20 1011.9
20260506232408 84 297 2.6 4.3 0.00 0.00 0.00 21 1011.9
20260506225409 84 317 3.5 6.1 0.00 0.00 0.00 20 1012.5
20260506224408 83 315 3.5 5.2 0.00 0.00 0.00 20 1012.4
20260506223408 83 251 4.3 6.1 0.00 0.00 0.00 21 1012.5
20260506222407 85 273 0.9 6.1 0.00 0.00 0.00 21 1012.7
20260506221408 82 325 2.6 6.1 0.00 0.00 0.00 22 1012.8
20260506220408 82 314 5.2 7.0 0.00 0.00 0.00 22 1012.9
20260506213406 83 164 1.7 7.0 0.00 0.00 0.00 21 1013.0
20260506212406 82 316 1.7 7.8 0.00 0.00 0.00 22 1013.3
20260506211407 82 299 0.9 6.1 0.00 0.00 0.00 22 1013.3
20260506205407 82 177 1.7 6.1 0.00 0.00 0.00 23 1013.6
20260506204406 81 359 1.7 9.6 0.00 0.00 0.00 23 1013.9
20260506203407 80 24 7.8 7.8 0.00 0.00 0.00 24 1014.0
20260506202407 80 213 0.0 7.8 0.00 0.00 0.00 24 1014.2
20260506201411 81 323 4.3 7.0 0.00 0.00 0.00 24 1014.1
20260506200408 80 313 5.2 6.1 0.00 0.00 0.00 25 1014.1
20260506194407 79 323 3.5 8.7 0.00 0.00 0.00 26 1014.3
20260506193407 80 350 2.6 7.8 0.00 0.00 0.00 25 1014.3